DW7040 Weather Reports


Display with metric or nautical units.
time (UTC)temp
F
wind
direction
speed
MPH
gust
MPH
rain 1hr
in
rain 24hr
in
rain mn
in
humidity
%
barometer
mb
20260505124600 0 195 9.0 16.0 0.00 0.00 0.00 1006.4
20260505123047 0 195 5.0 12.0 0.00 0.00 0.00 1006.6
20260505121546 0 195 4.0 10.0 0.00 0.00 0.00 1006.5
20260505120100 0 195 5.0 11.0 0.00 0.00 0.00 1006.6
20260505114536 0 195 7.0 10.0 0.00 0.00 0.00 1006.7
20260505113035 0 195 7.0 11.0 0.00 0.00 0.00 1006.7
20260505111528 0 195 6.0 10.0 0.00 0.00 0.00 1006.6
20260505101556 0 195 4.0 9.0 0.00 0.00 0.00 1006.8
20260505100042 0 195 6.0 11.0 0.00 0.00 0.00 1006.8
20260505094542 0 195 5.0 8.0 0.00 0.00 0.00 1006.8
20260505093042 0 195 7.0 12.0 0.00 0.00 0.00 1006.7
20260505091538 0 195 3.0 8.0 0.00 0.00 0.00 1006.7
20260505090044 0 195 4.0 8.0 0.00 0.00 0.00 1006.7
20260505084533 0 195 4.0 8.0 0.00 0.00 0.00 1006.7
20260505083028 0 195 2.0 4.0 0.00 0.00 0.00 1006.8
20260505081524 0 195 2.0 6.0 0.00 0.00 0.00 1006.7
20260505080018 0 195 1.0 3.0 0.00 0.00 0.00 1006.8
20260505074513 0 195 0.0 2.0 0.00 0.00 0.00 1006.7
20260505073012 0 195 1.0 3.0 0.00 0.00 0.00 1006.7
20260505071514 0 195 0.0 1.0 0.00 0.00 0.00 1006.7
20260505070104 0 195 0.0 0.0 0.00 0.00 0.00 1006.8
20260505064555 0 195 0.0 1.0 0.00 0.00 0.00 1006.8
20260505063044 0 195 0.0 0.0 0.00 0.00 0.00 1006.9
20260505061529 0 195 0.0 0.0 0.00 0.00 0.00 1006.8
20260505060013 0 195 0.0 2.0 0.00 0.00 0.00 1006.7
20260505054607 0 195 1.0 4.0 0.00 0.00 0.00 1006.7
20260505053056 0 195 2.0 4.0 0.00 0.00 0.00 1006.6
20260505051537 0 195 2.0 3.0 0.00 0.00 0.00 1006.5
20260505041559 0 197 0.0 1.0 0.00 0.00 0.00 1006.6
20260505040049 0 197 0.0 2.0 0.00 0.00 0.00 1006.5
20260505034511 0 197 1.0 3.0 0.00 0.00 0.00 1006.4
20260505033005 0 197 2.0 3.0 0.00 0.00 0.00 1006.4
20260505031611 0 197 1.0 2.0 0.00 0.00 0.00 1006.5
20260505030030 0 197 0.0 2.0 0.00 0.00 0.00 1006.6
20260505024533 0 197 1.0 2.0 0.00 0.00 0.00 1006.6
20260505023036 0 196 0.0 0.0 0.00 0.00 0.00 1006.6
20260505021600 0 197 0.0 0.0 0.00 0.00 0.00 1006.7
20260505021502 0 196 0.0 0.0 0.00 0.00 0.00 1006.7
20260505020044 0 197 0.0 0.0 0.00 0.00 0.00 1006.8
20260505014544 0 197 1.0 1.0 0.00 0.00 0.00 1006.8
20260505013049 0 197 0.0 1.0 0.00 0.00 0.00 1007.0
20260505011543 0 197 2.0 3.0 0.00 0.00 0.00 1006.9
20260505010038 0 197 1.0 3.0 0.00 0.00 0.00 1007.0
20260505004545 0 197 1.0 3.0 0.00 0.00 0.00 1007.1
20260505003031 0 197 0.0 2.0 0.00 0.00 0.00 1007.2
20260505001512 0 197 0.0 2.0 0.00 0.00 0.00 1007.2
20260505000011 0 197 0.0 2.0 0.00 0.00 0.00 1007.3
20260504234504 0 196 0.0 2.0 0.00 0.00 0.00 1007.3
20260504233102 0 196 0.0 2.0 0.00 0.00 0.00 1007.2
20260504231555 0 196 1.0 3.0 0.00 0.00 0.00 1007.3
20260504230104 0 197 2.0 4.0 0.00 0.00 0.00 1007.4
20260504224545 0 197 1.0 2.0 0.00 0.00 0.00 1007.4
20260504223041 0 197 0.0 2.0 0.00 0.00 0.00 1007.5
20260504221514 0 197 0.0 1.0 0.00 0.00 0.00 1007.5
20260504220012 0 197 1.0 2.0 0.00 0.00 0.00 1007.5
20260504214505 0 197 0.0 1.0 0.00 0.00 0.00 1007.6
20260504213048 0 197 0.0 1.0 0.00 0.00 0.00 1007.6
20260504211547 0 197 0.0 1.0 0.00 0.00 0.00 1007.6
20260504210039 0 197 0.0 2.0 0.00 0.00 0.00 1007.7
20260504204537 0 197 0.0 1.0 0.00 0.00 0.00 1007.7
20260504203030 0 197 0.0 2.0 0.00 0.00 0.00 1007.7
20260504201526 0 197 0.0 1.0 0.00 0.00 0.00 1007.5
20260504200021 0 197 1.0 2.0 0.00 0.00 0.00 1007.5
20260504194516 0 197 1.0 2.0 0.00 0.00 0.00 1007.3
20260504193049 0 197 2.0 3.0 0.00 0.00 0.00 1007.4
20260504191544 0 197 3.0 5.0 0.00 0.00 0.00 1007.3
20260504190045 0 197 3.0 6.0 0.00 0.00 0.00 1007.2
20260504184539 0 197 3.0 5.0 0.00 0.00 0.00 1007.3
20260504183031 0 197 3.0 7.0 0.00 0.00 0.00 1007.2
20260504181504 0 197 6.0 8.0 0.00 0.00 0.00 1007.0
20260504180029 0 197 5.0 9.0 0.00 0.00 0.00 1007.1
20260504174529 0 197 3.0 9.0 0.00 0.00 0.00 1007.1
20260504173024 0 195 3.0 9.0 0.00 0.00 0.00 1007.1
20260504171528 0 195 6.0 9.0 0.00 0.00 0.00 1007.2